SCP
18 19 19 20 19 19 17 14 12 12 11 11 10 10 10 9 7 6 5 4 3 2 2 3 3 2 1 0 0 0 0 0 0 0 0 0 0 0 0 1 1 1 0
21 22 22 22 24 25 23 17 13 13 12 12 11 11 10 8 7 6 5 3 2 1 1 1 1 1 0 0 0 0 0 0 0 0 0 0 0 0 0 0 0 0 0
22 23 26 31 33 33 28 20 15 14 13 12 12 11 9 8 6 4 3 2 1 0 0 0 0 0 0 0 0 0 0 0 0 0 0 0 0 0 0 0 0 0 0
19 21 29 41 41 34 28 21 15 15 13 12 12 10 9 7 5 3 2 1 0 0 0 0 0 0 0 0 0 0 0 0 0 0 0 0 0 0 0 0 0 0 0
17 20 31 44 43 32 26 20 15 14 12 11 12 11 9 6 4 2 1 0 0 0 0 0 0 0 0 0 0 0 0 0 0 0 0 0 0 0 0 0 0 0 0
15 20 31 39 37 29 23 17 12 11 10 10 10 10 7 4 2 1 0 0 0 0 0 0 0 0 0 0 0 0 0 0 0 0 0 0 0 0 0 0 0 0 0
14 18 25 28 25 21 17 12 8 6 6 6 6 5 3 1 0 0 0 0 0 0 0 0 0 0 0 0 0 0 0 0 0 0 0 0 0 0 0 0 0 0 0
13 14 15 14 12 11 9 7 5 4 3 3 2 2 1 0 0 0 0 0 0 0 0 0 0 0 0 0 0 0 0 0 0 0 0 0 0 0 0 0 0 0 0
12 11 9 7 6 5 5 4 3 2 1 1 1 1 0 0 0 0 0 0 0 0 0 0 0 0 0 0 0 0 0 0 0 0 0 0 0 0 0 0 0 0 0
10 8 6 5 3 2 2 2 1 1 1 1 1 0 0 0 0 0 0 0 0 0 0 0 0 0 0 0 0 0 0 0 0 0 0 0 0 0 0 0 0 0 0
8 6 4 3 1 1 1 1 1 1 1 0 0 0 0 0 0 0 0 0 0 0 0 0 0 0 0 0 0 0 0 0 0 0 0 0 0 0 0 0 0 0 0
6 4 2 1 1 0 0 0 0 0 0 0 0 0 0 0 0 0 0 0 0 0 0 0 0 0 0 0 0 0 0 0 0 0 0 0 0 0 0 0 0 0 0
4 3 1 1 0 0 0 0 0 0 0 0 0 0 0 0 0 0 0 0 0 0 0 0 0 0 0 0 0 0 0 0 0 0 0 0 0 0 0 0 0 0 0
2 2 1 0 0 0 0 0 0 0 0 0 0 0 0 0 0 0 0 0 0 0 0 0 0 0 0 0 0 0 0 0 0 0 0 0 0 0 0 0 0 0 0
2 2 1 0 0 0 0 0 0 0 0 0 0 0 0 0 0 0 0 0 0 0 0 0 0 0 0 0 0 0 0 0 0 0 0 0 0 0 0 0 0 0 0
2 1 0 0 0 0 0 0 0 0 0 0 0 0 0 0 0 0 0 0 0 0 0 0 0 0 0 0 0 0 0 0 0 0 0 0 0 0 0 0 0 0 0
1 1 0 0 0 0 0 0 0 0 0 0 0 0 0 0 0 0 0 0 0 0 0 0 0 0 0 0 0 0 0 0 0 0 0 0 0 0 0 0 0 0 0
0 0 0 0 0 0 0 0 0 0 0 0 0 0 0 0 0 0 0 0 0 0 0 0 0 0 0 0 0 0 0 0 0 0 0 0 0 0 0 0 0 0 0
0 0 0 0 0 0 0 0 0 0 0 0 0 0 0 0 0 0 0 0 0 0 0 0 0 0 0 0 0 0 0 0 0 0 0 0 0 0 0 0 0 0 0
0 0 0 0 0 0 0 0 0 0 0 0 0 0 0 0 0 0 0 0 0 0 0 0 0 0 0 0 0 0 0 0 0 0 0 0 0 0 0 0 0 0 0
0 0 0 0 0 0 0 0 0 0 0 0 0 0 0 0 0 0 0 0 0 0 0 0 0 0 0 0 0 0 0 0 0 0 0 0 0 0 0 0 0 0 0
0 0 0 0 0 0 0 0 0 0 0 0 0 0 0 0 0 0 0 0 0 0 0 0 0 0 0 0 0 0 0 0 0 0 0 0 0 0 0 0 0 0 0
0 0 0 0 0 0 0 0 0 0 0 0 0 0 0 0 0 0 0 0 0 0 0 0 0 0 0 0 0 0 0 0 0 0 0 0 0 0 0 0 0 0 0
0 0 0 0 0 0 0 0 0 0 0 0 0 0 0 0 0 0 0 0 0 0 0 0 0 0 0 0 0 0 0 0 0 0 0 0 0 0 0 0 0 0 0
0 0 0 0 0 0 0 0 0 0 0 0 0 0 0 0 0 0 0 0 0 0 0 0 0 0 0 0 0 0 0 0 0 0 0 0 0 0 0 0 0 0 0
0 0 0 0 0 0 0 0 0 0 0 0 0 0 0 0 0 0 0 0 0 0 0 0 0 0 0 0 0 0 0 -0 0 0 0 0 0 0 0 0 0 0 0
Wind_Speed
11 14 15 14 11 12 12 10 10 10 8 7 7 6 6 6 6 6 6 6 6 6 5 4 3 2 3 2 2 3 4 4 3 4 5 4 6 6 4 4 3 1 2
10 16 16 15 13 11 11 10 9 10 9 7 6 6 7 6 6 6 6 6 6 4 5 4 2 3 1 0 1 2 2 4 4 4 4 4 5 3 5 4 4 4 4
12 18 19 17 15 12 11 9 9 9 8 9 7 8 7 7 6 6 4 5 5 5 5 3 3 3 3 2 2 2 3 3 4 3 2 3 3 5 5 7 5 5 3
13 17 18 17 15 13 10 8 8 8 8 9 10 11 8 8 7 5 5 4 4 4 3 2 3 3 3 3 3 6 3 3 4 4 3 3 2 2 4 5 6 6 5
14 17 17 15 13 12 10 9 9 9 8 7 8 7 6 6 6 6 5 4 4 3 3 3 3 1 1 4 3 2 3 3 3 4 5 5 4 4 4 6 5 5 5
12 17 16 15 13 12 11 10 9 8 7 7 6 7 9 8 7 5 5 3 5 4 4 4 2 1 2 2 0 0 3 1 2 2 4 4 4 4 5 7 6 6 5
15 17 17 16 15 14 12 11 10 8 7 8 8 8 8 7 6 4 3 1 3 5 4 4 1 1 1 2 2 2 3 2 2 2 3 3 3 4 5 6 7 8 6
16 18 16 16 15 15 13 12 11 9 8 8 7 7 6 4 4 2 1 1 3 6 5 2 1 1 2 3 1 2 4 3 3 5 5 4 5 5 4 5 7 10 8
17 18 16 14 14 13 12 11 11 9 8 8 7 6 4 5 6 3 1 3 3 3 3 1 1 2 2 2 2 4 4 4 5 5 6 5 5 4 5 5 5 8 12
17 17 15 14 12 12 11 10 9 9 8 7 6 6 5 5 3 3 5 5 3 3 0 2 2 2 3 4 4 4 5 5 5 5 6 6 5 5 5 5 6 6 9
18 16 14 14 14 12 11 9 8 8 6 5 4 5 4 4 3 3 4 3 2 0 3 2 3 4 4 5 5 5 6 7 7 7 7 7 7 6 5 5 6 6 7
18 16 15 15 14 12 10 8 7 6 5 5 5 4 3 3 2 4 3 2 1 2 3 3 4 5 5 4 5 6 7 6 7 7 7 7 7 7 6 6 7 7 7
17 16 15 13 12 11 9 8 6 6 6 6 5 4 3 3 3 3 2 1 1 2 4 4 5 5 5 6 8 9 9 9 9 9 9 8 8 8 6 7 8 7 9
14 15 14 13 12 10 9 9 9 8 7 7 5 4 3 3 2 2 2 3 4 4 5 5 6 7 9 11 11 11 10 9 9 9 9 9 8 7 7 7 7 7 7
14 15 14 13 12 12 11 10 9 8 7 5 4 2 1 1 1 3 4 4 5 6 6 6 7 7 7 9 10 10 10 10 10 10 9 9 12 14 10 9 7 8 8
14 15 15 14 13 12 11 10 8 6 4 2 0 1 1 1 2 2 3 4 5 5 6 7 7 7 6 6 9 9 9 10 10 10 9 10 12 13 13 16 17 14 11
14 14 14 13 12 11 10 9 5 1 1 1 1 1 1 3 3 4 5 5 6 6 6 6 6 5 3 2 4 9 10 10 9 9 10 11 11 13 10 12 15 14 16
14 13 13 13 11 10 8 5 2 2 3 2 2 2 2 3 3 5 6 5 5 5 5 5 5 5 2 1 4 10 10 9 9 9 10 11 11 12 11 11 11 10 11
14 13 12 12 10 7 5 3 2 2 2 3 3 4 4 4 5 6 6 6 5 4 5 5 5 5 3 1 5 9 10 8 9 10 11 12 12 13 13 12 12 12 10
13 13 11 10 8 4 3 3 3 3 4 5 5 5 5 4 5 6 5 5 4 4 5 6 5 6 5 4 5 10 9 9 10 10 10 12 12 14 14 11 10 11 9
13 11 10 7 5 4 3 4 5 5 5 5 4 4 4 3 6 5 3 4 5 4 5 6 6 5 7 7 9 12 9 9 10 10 9 8 14 16 15 12 9 10 9
11 9 7 5 4 4 5 6 5 4 4 4 4 4 5 6 6 5 4 4 5 5 6 6 7 6 7 9 12 15 14 13 11 9 8 9 17 17 14 8 7 8 6
8 6 7 7 6 5 5 5 5 4 4 4 4 4 6 6 6 5 5 5 5 5 6 6 7 7 7 8 13 15 16 16 10 9 14 16 16 13 9 10 11 7 3
8 8 8 8 6 5 5 5 5 5 5 4 3 4 6 6 5 4 5 5 6 6 6 6 6 6 6 7 9 9 9 11 10 9 11 13 12 9 8 8 7 5 5
8 8 7 7 8 7 7 6 5 5 4 3 3 5 6 5 4 4 4 5 5 4 4 5 5 5 6 10 14 10 8 8 9 9 6 5 6 6 6 5 5 5 5
8 7 8 8 8 8 8 7 7 6 5 4 5 5 5 4 3 2 2 1 1 4 3 3 4 6 7 12 14 16 14 12 14 8 7 7 7 7 6 6 5 5 5
Wind_Direction
178 150 148 149 154 151 158 167 170 158 155 148 147 138 130 119 109 104 100 88 81 71 53 77 80 62 64 50 15 21 332 318 318 316 306 294 286 278 280 299 288 314 348
164 146 151 153 166 162 165 168 167 158 157 145 140 133 124 116 107 97 90 87 80 72 77 54 38 51 28 35 42 40 341 321 341 324 306 303 296 329 354 339 345 3 1
177 159 160 161 163 169 173 171 163 157 155 139 126 118 109 115 118 119 107 96 96 80 58 53 40 19 329 69 25 21 9 342 322 294 305 315 316 344 322 344 350 347 339
190 167 162 160 161 162 163 149 144 144 134 131 138 143 147 147 139 131 122 119 105 100 98 73 62 23 354 56 18 59 355 329 306 326 347 325 322 300 307 313 309 315 320
197 166 160 151 144 143 135 122 118 121 128 132 139 141 129 117 113 109 123 135 122 127 118 98 73 24 28 64 25 30 344 323 355 355 342 332 324 286 273 294 307 309 291
167 150 142 133 127 122 115 112 112 110 111 110 112 109 112 115 119 131 147 172 159 157 139 128 99 297 60 76 322 56 276 354 19 339 319 315 317 324 320 308 303 300 311
131 132 134 129 126 125 119 116 115 112 106 102 99 103 109 116 125 144 155 219 160 136 113 104 117 338 91 234 225 233 254 246 223 239 267 285 310 304 298 300 303 302 302
128 133 134 131 131 127 124 124 122 118 111 106 106 109 124 136 120 74 106 118 56 94 126 131 192 252 261 283 11 310 272 244 222 248 258 260 262 263 274 282 291 291 287
125 127 127 128 131 131 128 127 124 120 116 113 106 99 87 85 94 91 10 88 69 105 99 99 238 255 262 273 276 265 280 266 247 248 253 251 254 257 260 264 269 282 289
122 125 128 131 128 125 121 114 117 117 113 113 119 112 95 95 125 129 76 68 77 68 15 251 252 263 263 257 252 264 270 278 270 262 262 263 265 269 272 272 271 269 276
132 129 131 128 122 119 118 116 115 116 120 120 111 114 125 132 138 106 109 104 86 169 252 258 268 266 261 256 254 259 267 269 272 278 282 283 285 286 285 283 281 279 279
125 126 126 123 123 123 122 119 116 115 111 104 95 91 93 99 104 104 101 128 163 275 297 301 294 291 292 292 291 295 306 317 321 320 316 311 309 309 306 303 302 298 296
119 121 120 122 122 120 118 110 98 91 90 92 86 69 65 72 67 84 84 17 336 309 308 313 315 318 331 355 5 7 4 356 341 331 323 319 316 311 312 311 303 299 297
120 121 119 115 111 107 101 90 75 64 62 64 66 53 46 54 40 38 24 359 355 344 349 355 356 2 32 36 22 8 350 341 331 321 314 310 307 302 300 297 289 289 290
125 123 119 114 110 103 96 87 73 58 47 50 61 53 24 344 6 22 21 25 17 8 9 6 7 12 48 37 21 358 345 333 318 311 308 305 302 295 286 283 284 286 283
127 123 119 116 112 106 100 91 79 61 36 22 89 147 274 32 50 32 40 37 25 14 10 13 12 13 36 46 24 358 333 316 311 312 311 305 297 301 299 292 289 284 282
124 122 119 115 110 106 104 104 107 122 231 220 204 166 89 75 50 28 41 31 24 22 12 6 9 17 87 72 351 339 320 312 313 314 311 310 311 312 302 303 303 295 287
115 115 114 111 108 107 108 117 148 206 209 191 135 96 90 88 65 50 36 34 31 18 354 357 4 346 27 200 312 325 320 316 315 312 308 308 309 309 312 306 296 286 280
105 108 110 111 110 113 122 139 197 204 151 118 96 75 61 53 50 48 32 31 14 4 349 360 347 338 358 276 317 334 326 319 317 312 310 308 306 307 307 302 294 289 283
103 108 110 110 113 129 164 178 151 116 97 87 78 69 57 47 57 55 34 18 0 6 352 350 340 345 3 10 0 346 331 325 321 312 309 306 308 308 304 300 293 290 291
107 109 111 113 127 154 157 128 107 97 95 98 97 80 48 48 73 58 42 22 5 1 354 351 350 4 11 9 7 348 336 328 319 317 319 320 321 318 312 303 286 281 291
112 114 117 123 140 140 118 103 101 108 115 111 95 81 62 41 48 43 45 31 7 8 11 3 359 4 5 4 352 338 330 326 324 323 325 328 328 328 328 329 324 313 307
126 136 138 138 142 139 133 125 133 137 120 99 86 82 87 75 48 38 39 30 20 20 15 6 358 354 354 351 347 336 330 331 332 328 332 332 332 338 347 359 4 6 5
149 151 146 139 136 135 128 115 109 101 88 82 87 100 92 84 69 45 41 40 24 21 14 5 353 347 346 349 345 337 333 337 340 335 330 329 331 342 348 356 4 7 8
155 149 139 125 115 111 105 97 88 82 90 87 83 89 80 71 68 68 47 45 60 40 8 3 347 344 347 339 331 336 342 345 341 332 335 341 343 354 359 359 1 2 5
141 132 121 113 109 104 92 79 68 55 41 60 64 72 68 59 55 81 138 107 121 190 231 277 329 351 353 339 341 344 346 351 349 351 351 350 350 354 0 0 0 0 2